User: anonymous   Login
Location: ??????
(42.0089°N, 44.3281°E)
Time: 08:55:31
(UTC+00:00)
Language:

Cosmos 2228 - Orbit

View from above orbital plane
View from above orbital plane
View from above satellite
View from above satellite

Ground track
Ground track

The orbit data is extracted from the following two-line orbital elements,

1 22286U 92094A   22024.92814231  .00000409  00000-0  41351-4 0  9995
2 22286  82.5181 226.3298 0019717 294.7601  65.1564 14.88432491551678
Epoch (UTC): 24 January 2022 22:16:31
Eccentricity: 0.0019717
inclination: 82.5181°
perigee height: 589 km
apogee height: 616 km
right ascension of ascending node: 226.3298°
argument of perigee: 294.7601°
revolutions per day: 14.88432491
mean anomaly at epoch: 65.1564°
orbit number at epoch: 55167

The dashed part of the orbit path shows where the satellite is in the earth's shadow,  

DLR